Weather History for KUZA - November, 2012

Change the Weather History Date:

Wednesday, November 28, 2012

  Actual Average Record
Temperature  
Mean Temperature 46 °F -  
Max Temperature 55 °F 61 °F 77 °F (1990)
Min Temperature 33 °F 43 °F 18 °F (2013)
Degree Days  
Heating Degree Days 20    
Moisture  
Dew Point 37 °F    
Average Humidity 75    
Maximum Humidity 100    
Minimum Humidity 44    
Precipitation  
Precipitation 0.00 in - - ()
Sea Level Pressure  
Sea Level Pressure 30.32 in    
Wind  
Wind Speed 3 mph (NE)    
Max Wind Speed 7 mph    
Max Gust Speed -    
Visibility 9 miles    
Events      
Averages and records for this station are not official NWS values.
T = Trace of Precipitation, MM = Missing Value Source: NWS Daily Summary

Daily Weather History Graph

Daily Weather History Graph

Search for Another Location

Airport or City:

Trip Planner

Search our weather history database for the weather conditions in past years. The results will help you decide how hot, cold, wet, or windy it might be!

Date:

Astronomy

Nov. 28, 2012 Rise Set
Actual Time 7:11 AM EST 5:13 PM EST
Civil Twilight 6:43 AM EST 5:40 PM EST
Nautical Twilight 6:12 AM EST 6:11 PM EST
Astronomical Twilight 5:42 AM EST 6:42 PM EST
Moon 5:27 PM EST (11/28) 7:07 AM EST (11/28)
Length of Visible Light 10h 56m
Length of Day
10h 01m
Full, 100% of the Moon is Illuminated
Nov 28
Full
Dec 6
Last Quarter
Dec 13
New
Dec 20
First Quarter
Dec 28
Full

Hourly Weather History & Observations

Time (EST) Temp. Windchill Dew Point Humidity Pressure Visibility Wind Dir Wind Speed Gust Speed Precip Events Conditions
12:25 AM 48.0 °F - 45.0 °F 89% 30.23 in 7.0 mi NE 4.6 mph - N/A   Overcast
12:37 AM 48.0 °F - 45.0 °F 89% 30.23 in 7.0 mi NE 5.8 mph - N/A   Overcast
12:54 AM 48.0 °F - 43.0 °F 83% 30.23 in 8.0 mi NE 6.9 mph - N/A   Overcast
1:54 AM 46.9 °F - 39.9 °F 77% 30.23 in 10.0 mi Variable 3.5 mph - N/A   Overcast
2:54 AM 46.0 °F 44.8 °F 39.9 °F 79% 30.25 in 10.0 mi NE 3.5 mph - N/A   Overcast
3:54 AM 45.0 °F 41.8 °F 37.9 °F 76% 30.25 in 10.0 mi NE 5.8 mph - N/A   Overcast
4:54 AM 44.1 °F 42.5 °F 37.9 °F 79% 30.27 in 10.0 mi Variable 3.5 mph - N/A   Overcast
5:54 AM 43.0 °F 41.3 °F 37.9 °F 82% 30.28 in 10.0 mi NE 3.5 mph - N/A   Overcast
6:54 AM 42.1 °F - 37.0 °F 82% 30.30 in 9.0 mi Calm Calm - N/A   Mostly Cloudy
7:54 AM 39.9 °F - 37.0 °F 89% 30.32 in 6.0 mi Calm Calm - N/A   Clear
8:54 AM 44.1 °F - 37.9 °F 79% 30.36 in 7.0 mi Calm Calm - N/A   Mostly Cloudy
9:54 AM 46.0 °F 43.9 °F 39.0 °F 76% 30.37 in 8.0 mi Variable 4.6 mph - N/A   Partly Cloudy
10:54 AM 48.0 °F - 37.9 °F 68% 30.38 in 9.0 mi North 5.8 mph - N/A   Scattered Clouds
11:54 AM 48.9 °F - 37.0 °F 64% 30.37 in 10.0 mi ENE 3.5 mph - N/A   Scattered Clouds
12:54 PM 52.0 °F - 36.0 °F 54% 30.35 in 10.0 mi NNW 5.8 mph - N/A   Clear
1:54 PM 54.0 °F - 36.0 °F 51% 30.31 in 10.0 mi Calm Calm - N/A   Clear
2:54 PM 55.0 °F - 34.0 °F 45% 30.30 in 10.0 mi Calm Calm - N/A   Clear
3:54 PM 55.9 °F - 34.0 °F 44% 30.30 in 10.0 mi Calm Calm - N/A   Clear
4:54 PM 54.0 °F - 34.0 °F 47% 30.31 in 10.0 mi Calm Calm - N/A   Clear
5:54 PM 45.0 °F 43.5 °F 35.1 °F 68% 30.32 in 10.0 mi SW 3.5 mph - N/A   Clear
6:54 PM 39.9 °F - 34.0 °F 79% 30.35 in 5.0 mi Calm Calm - N/A   Haze
7:54 PM 39.0 °F 35.7 °F 34.0 °F 82% 30.36 in 10.0 mi SSW 4.6 mph - N/A   Clear
8:54 PM 37.0 °F 33.3 °F 34.0 °F 89% 30.38 in 10.0 mi SW 4.6 mph - N/A   Clear
9:54 PM 36.0 °F - 33.1 °F 89% 30.38 in 6.0 mi Calm Calm - N/A   Clear
10:54 PM 36.0 °F - 36.0 °F 100% 30.40 in 6.0 mi Calm Calm - N/A   Clear
11:54 PM 33.1 °F - 32.0 °F 96% 30.40 in 5.0 mi Calm Calm - N/A   Clear